Location: Voyageurs National Park
(48.5020°N, 92.9292°W)
Time: 19:12:08
(UTC-06:00)

Amateur Radio Satellites - All Passes

Search period start: 23 January 2017 18:42
Search period end: 24 January 2017 18:42
Location: Voyageurs National Park, 48.5020°N, 92.9292°W

Satellite Date Start Highest point End Downlink Frequencies (MHz)
Time Altitude Azimuth
NOAA 18 23 Jan 18:49:43 18:54:48 38° 262° (W) 18:59:55 137.9125
AIST 2 23 Jan 18:55:23 18:59:22 49° 122° (ESE) 19:03:26 435.215
Oscar 11 23 Jan 19:01:42 19:04:36 18° 61° (ENE) 19:07:31 145.826/435.025
CINEMA 3 23 Jan 19:06:25 19:10:32 43° 262° (W) 19:14:34 145.822/145.860
CUTE-I 23 Jan 19:14:10 19:17:06 15° 273° (W) 19:20:01 437.470
STRAND 1 23 Jan 19:18:57 19:23:55 46° 99° (E) 19:28:51 437.568
CUTE 1.7 + AOD 2 23 Jan 19:23:06 19:27:15 50° 261° (W) 19:31:27 437.475
CUBEBUG 2 23 Jan 19:36:01 19:40:10 83° 257° (WSW) 19:44:21 437.445
FUNcube-1 23 Jan 19:41:43 19:45:37 41° 69° (ENE) 19:49:35 145.935
HUMSAT D 23 Jan 19:48:11 19:49:19 11° 56° (ENE) 19:50:28 437.325/437.525
AO-85 23 Jan 19:54:07 19:57:01 19° 32° (NNE) 19:59:50 145.980
CANX-2 23 Jan 19:54:11 19:57:34 22° 268° (W) 20:00:59 2200.000
COMPASS 1 23 Jan 19:54:33 19:58:38 50° 261° (W) 20:02:47 437.405
UWE-3 23 Jan 19:56:33 20:00:41 79° 258° (WSW) 20:04:53 435.000/436.395/437.385
SEEDS 23 Jan 19:56:44 20:00:34 33° 264° (W) 20:04:28 437.485
AAUSAT CUBESAT 2 23 Jan 20:01:57 20:06:03 54° 260° (W) 20:10:11 437.432
HO-68 23 Jan 20:06:05 20:12:27 33° 266° (W) 20:18:50 435.675
ZACube-1 23 Jan 20:06:45 20:10:54 82° 76° (ENE) 20:15:07 437.345
GONETS M04 23 Jan 20:21:49 20:30:31 71° 283° (WNW) 20:39:19
Cosmos 2499 23 Jan 20:34:17 20:42:09 48° 288° (WNW) 20:49:29 435.465 / 435.565
AIST 2 23 Jan 20:34:28 20:38:04 28° 322° (NW) 20:41:43 435.215
Oscar 11 23 Jan 20:36:03 20:40:18 59° 259° (W) 20:44:37 145.826/435.025
DELFI C3 23 Jan 20:45:54 20:49:52 64° 73° (ENE) 20:53:53 145.870
STRAND 1 23 Jan 20:58:31 21:02:54 29° 297° (WNW) 21:07:15 437.568
BY70-1 23 Jan 21:12:44 21:14:40 15° 63° (ENE) 21:16:40 436.1900
UNISAT 6 23 Jan 21:14:29 21:17:03 15° 89° (E) 21:19:37 437.425
PRISM 23 Jan 21:16:52 21:20:44 38° 98° (E) 21:24:34 437.425
ISS 23 Jan 21:18:24 21:21:18 29° 144° (SE) 21:24:12 145.825
FUNcube-1 23 Jan 21:18:55 21:22:04 21° 268° (W) 21:25:16 145.935
HUMSAT D 23 Jan 21:20:05 21:24:12 83° 75° (ENE) 21:28:25 437.325/437.525
TIGRISAT 23 Jan 21:26:13 21:29:17 18° 91° (E) 21:32:23 435.000
JAS-2 23 Jan 21:26:23 21:30:09 14° 83° (E) 21:34:00 435.910
RS-15 23 Jan 21:29:42 21:38:13 24° 98° (E) 21:46:54 29.354- 29.394
AO-85 23 Jan 21:33:58 21:37:55 80° 233° (SW) 21:41:49 145.980
ESTCUBE 1 23 Jan 21:38:43 21:42:18 23° 63° (ENE) 21:45:55 437.505/2401.250
ANTELSAT 23 Jan 21:41:56 21:45:43 26° 94° (E) 21:49:34 437.575/2403.000
ZACube-1 23 Jan 21:46:46 21:47:49 11° 274° (W) 21:48:53 437.345
BEESAT 3 23 Jan 22:09:28 22:12:14 18° 31° (NNE) 22:15:01 437.485
CUBEBUG 1 23 Jan 22:09:52 22:13:34 27° 65° (ENE) 22:17:16 437.445
AIST 2 23 Jan 22:17:11 22:17:56 10° 345° (NNW) 22:18:41 435.215
DELFI C3 23 Jan 22:23:07 22:25:06 13° 271° (W) 22:27:06 145.870
GONETS M04 23 Jan 22:23:27 22:29:15 19° 308° (NW) 22:35:06
Cosmos 2499 23 Jan 22:35:29 22:37:28 11° 312° (NW) 22:39:25 435.465 / 435.565
AISAT 23 Jan 22:36:09 22:40:08 33° 66° (ENE) 22:44:06 437.250
BY70-1 23 Jan 22:41:34 22:44:33 40° 262° (W) 22:47:43 436.1900
UNISAT 6 23 Jan 22:49:46 22:54:12 69° 287° (WNW) 22:58:43 437.425
PRISM 23 Jan 22:52:34 22:55:50 23° 297° (WNW) 22:59:05 437.425
ISS 23 Jan 22:54:22 22:57:37 69° 343° (NNW) 23:00:52 145.825
HUMSAT D 23 Jan 22:59:26 23:00:26 11° 274° (W) 23:01:26 437.325/437.525
TIGRISAT 23 Jan 23:01:57 23:06:19 57° 288° (WNW) 23:10:45 435.000
BEESAT 2 23 Jan 23:02:27 23:05:42 23° 35° (NE) 23:08:57 435.950
50 SAT 23 Jan 23:02:56 23:06:16 37° 70° (ENE) 23:09:38 437.505
VELOX 1 23 Jan 23:08:47 23:13:11 64° 72° (ENE) 23:17:35 145.980
SPROUT 23 Jan 23:08:50 23:12:54 47° 70° (ENE) 23:17:00 437.525
JAS-2 23 Jan 23:09:06 23:16:20 66° 102° (ESE) 23:24:05 435.910
ESTCUBE 1 23 Jan 23:14:28 23:18:51 46° 261° (W) 23:23:16 437.505/2401.250
ANTELSAT 23 Jan 23:18:24 23:22:31 38° 292° (WNW) 23:26:43 437.575/2403.000
PCSat 23 Jan 23:18:46 23:23:07 25° 109° (ESE) 23:27:29 145.827
UKube-1 23 Jan 23:19:54 23:23:45 32° 66° (ENE) 23:27:38 .
DX 1 23 Jan 23:28:09 23:32:23 51° 70° (ENE) 23:36:38 434.975-435.025
QB50P1 23 Jan 23:29:50 23:33:44 34° 97° (E) 23:37:36 145.935-145.965
POLYITAN 1 23 Jan 23:35:12 23:39:12 39° 98° (E) 23:43:11 437.675
QB50P2 23 Jan 23:36:34 23:40:38 43° 99° (E) 23:44:40 145.880/145.840
RS-15 23 Jan 23:36:42 23:48:37 78° 122° (ESE) 00:00:59 29.354- 29.394
YUBILEINY 23 Jan 23:43:06 23:50:59 34° 64° (ENE) 23:58:46 435.215
CUBEBUG 1 23 Jan 23:45:39 23:49:44 36° 263° (W) 23:53:49 437.445
BEESAT 3 23 Jan 23:46:25 23:50:27 86° 49° (NE) 23:54:27 437.485
POPSAT HIP 1 23 Jan 23:56:59 00:01:12 64° 102° (ESE) 00:05:24 437.405
DUCHIFAT 1 24 Jan 00:02:49 00:07:00 64° 101° (ESE) 00:11:11 145.980
NANOSAT C BR1 24 Jan 00:10:27 00:14:41 84° 104° (ESE) 00:18:55 145.865
AISAT 24 Jan 00:12:42 00:16:36 30° 264° (W) 00:20:31 437.250
AIST 1 24 Jan 00:14:58 00:19:10 53° 77° (ENE) 00:23:19
BUGSAT 1 24 Jan 00:21:35 00:25:22 37° 98° (E) 00:29:09 437.445
TISAT 1 24 Jan 00:22:59 00:26:56 44° 70° (ENE) 00:30:55 437.305
Cosmos 2504 24 Jan 00:26:41 00:33:04 30° 64° (ENE) 00:39:14 435.465 / 435.565
UNISAT 6 24 Jan 00:29:23 00:30:07 10° 305° (NW) 00:30:52 437.425
ISS 24 Jan 00:31:13 00:34:22 46° 3° (N) 00:37:32 145.825
50 SAT 24 Jan 00:37:10 00:39:38 17° 268° (W) 00:42:07 437.505
Cosmos 2491 24 Jan 00:39:35 00:46:44 30° 81° (E) 00:53:55 435.465 / 435.565
BEESAT 2 24 Jan 00:39:49 00:43:51 64° 235° (SW) 00:47:51 435.950
Gurwin Techsat 1B 24 Jan 00:42:00 00:43:41 11° 85° (E) 00:45:21 435.225
SPROUT 24 Jan 00:45:59 00:49:05 19° 268° (W) 00:52:12 437.525
VELOX 1 24 Jan 00:47:23 00:50:04 16° 270° (W) 00:52:46 145.980
ITUPSAT 1 24 Jan 00:48:21 00:52:00 22° 60° (ENE) 00:55:39 437.325
JAS-2 24 Jan 00:54:44 01:00:58 34° 300° (WNW) 01:07:38 435.910
UKube-1 24 Jan 00:56:01 00:59:47 29° 264° (W) 01:03:36 .
PCSat 24 Jan 01:00:45 01:06:07 62° 309° (NW) 01:11:31 145.827
DX 1 24 Jan 01:05:45 01:08:51 19° 268° (W) 01:11:59 434.975-435.025
QB50P1 24 Jan 01:05:50 01:09:23 27° 295° (WNW) 01:12:56 145.935-145.965
POLYITAN 1 24 Jan 01:11:23 01:14:48 24° 296° (WNW) 01:18:13 437.675
QB50P2 24 Jan 01:12:55 01:16:11 22° 297° (WNW) 01:19:28 145.880/145.840
BEESAT 24 Jan 01:19:18 01:23:43 40° 67° (ENE) 01:28:11 436.000
SWISSCUBE 24 Jan 01:21:14 01:25:46 46° 68° (ENE) 01:30:21 437.505
BEESAT 3 24 Jan 01:25:54 01:27:27 12° 250° (WSW) 01:28:59 437.485
Oscar 19 24 Jan 01:33:17 01:38:23 55° 101° (E) 01:43:25 437.125/150
POPSAT HIP 1 24 Jan 01:33:55 01:36:31 16° 300° (WNW) 01:39:07 437.405
AIST 2 24 Jan 01:35:07 01:38:27 22° 34° (NNE) 01:41:46 435.215
DUCHIFAT 1 24 Jan 01:39:39 01:42:13 16° 300° (WNW) 01:44:47 145.980
YUBILEINY 24 Jan 01:39:44 01:48:26 66° 268° (W) 01:57:03 435.215
M-CUBED/EXP-1 PRIME 24 Jan 01:45:50 01:48:07 15° 55° (NE) 01:50:18 437.505
NANOSAT C BR1 24 Jan 01:47:54 01:49:48 13° 302° (WNW) 01:51:43 145.865
RS-15 24 Jan 01:50:34 02:02:14 49° 331° (NNW) 02:14:13 29.354- 29.394
AIST 1 24 Jan 01:53:40 01:56:19 16° 275° (W) 01:58:59
BUGSAT 1 24 Jan 01:57:22 02:00:34 23° 296° (WNW) 02:03:48 437.445
TISAT 1 24 Jan 01:59:43 02:02:48 20° 268° (W) 02:05:53 437.305
CUSAT 1 24 Jan 02:00:48 02:05:57 33° 85° (E) 02:12:09 437.405
ISS 24 Jan 02:07:46 02:11:03 86° 197° (SSW) 02:14:18 145.825
MOZHAYETS 4 24 Jan 02:16:45 02:21:04 43° 69° (ENE) 02:25:28
AUBIESAT-1 24 Jan 02:17:57 02:21:08 23° 60° (ENE) 02:24:10 437.475
Gurwin Techsat 1B 24 Jan 02:19:11 02:24:33 76° 104° (ESE) 02:29:51 435.225
Cosmos 2504 24 Jan 02:19:45 02:27:01 61° 267° (W) 02:34:00 435.465 / 435.565
ITUPSAT 1 24 Jan 02:24:48 02:29:28 55° 259° (W) 02:34:12 437.325
ITAMSAT 1 24 Jan 02:25:37 02:29:27 20° 91° (E) 02:33:15 435.822/435.867
KKS-1 24 Jan 02:28:23 02:31:45 22° 62° (ENE) 02:35:07 437.445
Cosmos 2491 24 Jan 02:34:11 02:42:52 71° 283° (WNW) 02:51:37 435.465 / 435.565
PHONESAT 2.4 24 Jan 02:34:42 02:35:31 11° 182° (S) 02:36:20 2401.200-2431.200
AO-7 24 Jan 02:43:51 02:50:37 26° 92° (E) 02:57:18 29.400- 29.500
PCSat 24 Jan 02:46:53 02:50:37 18° 332° (NNW) 02:54:22 145.827
BEESAT 24 Jan 02:57:32 03:01:37 28° 265° (W) 03:05:44 436.000
SWISSCUBE 24 Jan 02:59:53 03:03:46 24° 267° (W) 03:07:41 437.505
STARS 24 Jan 03:09:56 03:13:32 25° 64° (ENE) 03:17:07 437.465
AIST 2 24 Jan 03:13:08 03:17:24 77° 235° (SW) 03:21:39 435.215
Oscar 19 24 Jan 03:13:13 03:17:22 25° 300° (WNW) 03:21:30 437.125/150
CUBESAT XI-V 24 Jan 03:13:43 03:17:45 29° 65° (ENE) 03:21:49 437.345
M-CUBED/EXP-1 PRIME 24 Jan 03:17:59 03:22:12 73° 251° (WSW) 03:26:07 437.505
DANDE 24 Jan 03:31:21 03:35:37 47° 92° (E) 03:41:20 436.750
YUBILEINY 24 Jan 03:39:07 03:43:23 15° 290° (WNW) 03:47:39 435.215
CUSAT 1 24 Jan 03:41:43 03:47:28 53° 290° (WNW) 03:54:40 437.405
ISS 24 Jan 03:44:50 03:47:09 18° 221° (SW) 03:49:28 145.825
AUBIESAT-1 24 Jan 03:51:32 03:55:24 39° 255° (WSW) 03:59:03 437.475
MOZHAYETS 4 24 Jan 03:54:42 03:58:26 24° 267° (W) 04:02:11
Gurwin Techsat 1B 24 Jan 04:00:11 04:03:56 20° 303° (WNW) 04:07:40 435.225
KKS-1 24 Jan 04:03:42 04:08:00 49° 260° (W) 04:12:21 437.445
ITAMSAT 1 24 Jan 04:04:11 04:09:21 64° 290° (WNW) 04:14:30 435.822/435.867
RS-15 24 Jan 04:07:13 04:18:25 37° 4° (N) 04:29:36 29.354- 29.394
Cosmos 2504 24 Jan 04:16:59 04:18:37 11° 290° (WNW) 04:20:16 435.465 / 435.565
BRITE-PL 24 Jan 04:20:40 04:24:27 22° 90° (E) 04:27:59 437.365/2234.400
Cosmos 2499 24 Jan 04:28:35 04:33:05 17° 55° (NE) 04:37:31 435.465 / 435.565
GONETS M04 24 Jan 04:31:23 04:37:28 20° 53° (NE) 04:43:31
PCSat 24 Jan 04:35:14 04:36:22 11° 358° (N) 04:37:30 145.827
AO-7 24 Jan 04:35:52 04:44:16 81° 292° (WNW) 04:52:36 29.400- 29.500
Cosmos 2491 24 Jan 04:35:53 04:41:37 19° 308° (NW) 04:47:23 435.465 / 435.565
STARS 24 Jan 04:45:37 04:49:43 39° 262° (W) 04:53:50 437.465
CUBESAT XI-V 24 Jan 04:50:37 04:55:00 38° 263° (W) 04:59:26 437.345
AIST 2 24 Jan 04:54:40 04:55:08 10° 252° (WSW) 04:55:34 435.215
HORYU 2 24 Jan 05:00:30 05:04:04 23° 93° (E) 05:07:37 437.375
STRAND 1 24 Jan 05:01:58 05:05:06 17° 56° (NE) 05:08:15 437.568
O/OREOS (USA 219) 24 Jan 05:08:29 05:12:13 27° 105° (ESE) 05:15:59 437.305
LilacSat-2 24 Jan 05:13:14 05:14:27 11° 88° (E) 05:15:40 437.200
DANDE 24 Jan 05:14:46 05:18:49 26° 301° (WNW) 05:23:54 436.750
CUSAT 1 24 Jan 05:28:20 05:31:30 14° 315° (NW) 05:34:56 437.405
GOMX 1 24 Jan 05:41:01 05:45:18 51° 99° (E) 05:49:23 467.674
CUTE-I 24 Jan 05:44:35 05:49:01 26° 93° (E) 05:53:27 437.470
ITAMSAT 1 24 Jan 05:45:55 05:47:51 12° 309° (NW) 05:49:46 435.822/435.867
BRITE-PL 24 Jan 05:58:36 06:03:16 46° 291° (WNW) 06:07:33 437.365/2234.400
DOVE 4 24 Jan 05:58:55 06:02:37 30° 95° (E) 06:06:18 437.250
SO-50 24 Jan 06:09:36 06:12:41 17° 112° (ESE) 06:15:44 436.795
PCSat 24 Jan 06:18:51 06:22:13 16° 25° (NNE) 06:25:33 145.827
Cosmos 2499 24 Jan 06:20:25 06:27:36 79° 79° (E) 06:34:41 435.465 / 435.565
RS-15 24 Jan 06:21:59 06:34:12 57° 36° (NE) 06:46:05 29.354- 29.394
NOAA 15 24 Jan 06:22:36 06:27:50 54° 101° (E) 06:33:00 137.62
GONETS M04 24 Jan 06:27:14 06:36:07 73° 78° (ENE) 06:44:58
Cubesat XI-IV 24 Jan 06:28:41 06:33:59 58° 101° (E) 06:39:15 437.490
AO-7 24 Jan 06:29:35 06:35:55 25° 315° (NW) 06:42:16 29.400- 29.500
HORYU 2 24 Jan 06:36:34 06:40:49 44° 291° (WNW) 06:45:03 437.375
STRAND 1 24 Jan 06:38:31 06:43:37 87° 259° (W) 06:48:46 437.568
LilacSat-2 24 Jan 06:45:20 06:49:12 71° 285° (WNW) 06:53:04 437.200
O/OREOS (USA 219) 24 Jan 06:47:16 06:51:28 39° 304° (NW) 06:55:42 437.305
CINEMA 3 24 Jan 06:56:42 07:00:27 30° 96° (E) 07:04:16 145.822/145.860
CUTE 1.7 + AOD 2 24 Jan 07:04:33 07:07:55 22° 92° (E) 07:11:15 437.475
NOAA 18 24 Jan 07:07:11 07:12:39 67° 103° (ESE) 07:18:04 137.9125
GOMX 1 24 Jan 07:19:55 07:23:02 19° 299° (WNW) 07:26:04 467.674
CUBEBUG 2 24 Jan 07:23:34 07:26:19 16° 90° (E) 07:29:05 437.445
CUTE-I 24 Jan 07:24:10 07:29:21 51° 292° (WNW) 07:34:31 437.470
HO-68 24 Jan 07:28:22 07:35:10 43° 98° (E) 07:41:54 435.675
COMPASS 1 24 Jan 07:34:00 07:37:09 20° 92° (E) 07:40:15 437.405
CANX-2 24 Jan 07:34:10 07:38:22 48° 99° (E) 07:42:32 2200.000
SEEDS 24 Jan 07:36:26 07:40:14 31° 95° (E) 07:44:00 437.485
DOVE 4 24 Jan 07:36:44 07:40:19 28° 294° (WNW) 07:43:50 437.250
AAUSAT CUBESAT 2 24 Jan 07:41:00 07:43:57 18° 91° (E) 07:46:52 437.432
UWE-3 24 Jan 07:42:53 07:45:43 17° 90° (E) 07:48:36 435.000/436.395/437.385
SO-50 24 Jan 07:47:56 07:52:38 76° 310° (NW) 07:57:18 436.795
ZACube-1 24 Jan 07:52:32 07:54:36 13° 88° (E) 07:56:39 437.345
PCSat 24 Jan 08:01:38 08:06:57 49° 48° (NE) 08:12:12 145.827
NOAA 15 24 Jan 08:02:56 08:07:18 26° 300° (WNW) 08:11:38 137.62
PRISM 24 Jan 08:09:21 08:13:21 47° 70° (ENE) 08:17:22 437.425
Cubesat XI-IV 24 Jan 08:09:26 08:13:42 25° 300° (WNW) 08:17:57 437.490
Cosmos 2499 24 Jan 08:14:51 08:19:50 21° 281° (W) 08:24:46 435.465 / 435.565
UNISAT 6 24 Jan 08:16:58 08:20:05 20° 62° (ENE) 08:23:13 437.425
Oscar 11 24 Jan 08:20:02 08:23:14 20° 91° (E) 08:26:27 145.826/435.025
STRAND 1 24 Jan 08:21:20 08:23:35 13° 274° (W) 08:25:49 437.568
GONETS M04 24 Jan 08:24:58 08:32:09 29° 280° (W) 08:39:21
TIGRISAT 24 Jan 08:28:35 08:31:59 24° 64° (ENE) 08:35:24 435.000
CINEMA 3 24 Jan 08:33:55 08:37:34 30° 293° (WNW) 08:41:20 145.822/145.860
RS-15 24 Jan 08:35:04 08:47:06 62° 243° (WSW) 08:58:43 29.354- 29.394
CUTE 1.7 + AOD 2 24 Jan 08:39:52 08:43:57 42° 290° (WNW) 08:48:00 437.475
ANTELSAT 24 Jan 08:44:23 08:48:14 35° 68° (ENE) 08:52:09 437.575/2403.000
NOAA 18 24 Jan 08:48:40 08:52:51 23° 302° (WNW) 08:57:00 137.9125
CUBEBUG 2 24 Jan 08:59:00 09:03:19 62° 287° (WNW) 09:07:44 437.445
FUNcube-1 24 Jan 09:01:18 09:05:39 55° 100° (E) 09:10:03 145.935
HUMSAT D 24 Jan 09:01:50 09:02:59 11° 86° (E) 09:04:09 437.325/437.525
CUTE-I 24 Jan 09:08:08 09:08:14 10° 312° (NW) 09:08:19 437.470
COMPASS 1 24 Jan 09:08:53 09:12:55 45° 290° (WNW) 09:16:55 437.405
CANX-2 24 Jan 09:10:42 09:13:55 21° 297° (WNW) 09:17:06 2200.000
SEEDS 24 Jan 09:12:09 09:15:53 30° 293° (WNW) 09:19:35 437.485
AAUSAT CUBESAT 2 24 Jan 09:15:38 09:19:41 48° 289° (WNW) 09:23:42 437.432
HO-68 24 Jan 09:16:10 09:22:57 46° 298° (WNW) 09:29:41 435.675
UWE-3 24 Jan 09:18:12 09:22:33 61° 287° (WNW) 09:26:59 435.000/436.395/437.385
POPSAT HIP 1 24 Jan 09:21:09 09:21:53 10° 56° (NE) 09:22:36 437.405
JAS-2 24 Jan 09:26:16 09:31:25 40° 63° (ENE) 09:37:11 435.910
DUCHIFAT 1 24 Jan 09:26:37 09:27:07 10° 55° (NE) 09:27:36 145.980
ZACube-1 24 Jan 09:26:59 09:31:24 78° 284° (WNW) 09:35:53 437.345
SO-50 24 Jan 09:30:24 09:33:50 20° 331° (NNW) 09:37:15 436.795
NANOSAT C BR1 24 Jan 09:32:57 09:34:52 13° 58° (ENE) 09:36:48 145.865
PCSat 24 Jan 09:45:22 09:50:10 32° 248° (WSW) 09:54:56 145.827
PRISM 24 Jan 09:45:53 09:48:53 19° 268° (W) 09:51:54 437.425
UNISAT 6 24 Jan 09:52:22 09:56:29 49° 261° (W) 10:00:40 437.425
DELFI C3 24 Jan 09:54:01 09:58:00 62° 102° (ESE) 10:01:55 145.870
Oscar 11 24 Jan 09:55:25 09:59:39 49° 289° (WNW) 10:03:50 145.826/435.025
TIGRISAT 24 Jan 10:04:30 10:08:29 39° 262° (W) 10:12:32 435.000
ANTELSAT 24 Jan 10:21:27 10:25:02 26° 266° (W) 10:28:39 437.575/2403.000
QB50P1 24 Jan 10:25:36 10:29:33 41° 69° (ENE) 10:33:31 145.935-145.965
POLYITAN 1 24 Jan 10:31:07 10:35:08 47° 70° (ENE) 10:39:11 437.675
QB50P2 24 Jan 10:32:29 10:36:33 52° 71° (ENE) 10:40:39 145.880/145.840
HUMSAT D 24 Jan 10:34:53 10:39:12 87° 283° (WNW) 10:43:31 437.325/437.525
FUNcube-1 24 Jan 10:38:21 10:41:32 20° 298° (WNW) 10:44:45 145.935
Cosmos 2491 24 Jan 10:43:50 10:49:51 20° 53° (NE) 10:55:52 435.465 / 435.565
CUSAT 1 24 Jan 10:49:50 10:51:39 11° 41° (NE) 10:53:27 437.405
RS-15 24 Jan 10:50:25 10:56:47 16° 267° (W) 11:03:03 29.354- 29.394
POPSAT HIP 1 24 Jan 10:52:44 10:56:54 77° 74° (ENE) 11:01:07 437.405
DUCHIFAT 1 24 Jan 10:57:53 11:02:03 76° 73° (ENE) 11:06:14 145.980
ESTCUBE 1 24 Jan 11:03:12 11:07:07 28° 94° (E) 11:11:00 437.505/2401.250
ZACube-1 24 Jan 11:05:32 11:06:58 11° 303° (WNW) 11:08:24 437.345
NANOSAT C BR1 24 Jan 11:05:49 11:09:59 82° 256° (WSW) 11:14:12 145.865
HO-68 24 Jan 11:06:09 11:08:59 13° 320° (NW) 11:11:47 435.675
JAS-2 24 Jan 11:11:28 11:16:34 37° 266° (W) 11:22:15 435.910
BY70-1 24 Jan 11:11:48 11:15:00 58° 101° (E) 11:17:56 436.1900
BUGSAT 1 24 Jan 11:14:40 11:18:29 43° 70° (ENE) 11:22:19 437.445
SO-50 24 Jan 11:14:57 11:16:05 11° 356° (N) 11:17:13 436.795
Oscar 19 24 Jan 11:16:32 11:20:13 20° 58° (ENE) 11:23:55 437.125/150
DELFI C3 24 Jan 11:30:03 11:32:20 15° 299° (WNW) 11:34:37 145.870
CUBEBUG 1 24 Jan 11:30:11 11:34:01 30° 96° (E) 11:37:49 437.445
AO-85 24 Jan 11:53:46 11:55:52 13° 111° (ESE) 11:57:55 145.980
50 SAT 24 Jan 11:57:54 12:00:53 24° 95° (E) 12:03:50 437.505
AISAT 24 Jan 11:58:18 12:02:24 37° 98° (E) 12:06:29 437.250
AO-7 24 Jan 11:58:50 12:03:35 17° 36° (NE) 12:08:21 29.400- 29.500
QB50P1 24 Jan 12:02:16 12:05:30 21° 267° (W) 12:08:45 145.935-145.965
Gurwin Techsat 1B 24 Jan 12:05:24 12:09:52 28° 62° (ENE) 12:14:21 435.225
POLYITAN 1 24 Jan 12:08:13 12:11:12 19° 269° (W) 12:14:12 437.675
QB50P2 24 Jan 12:09:52 12:12:40 17° 269° (W) 12:15:29 145.880/145.840
HUMSAT D 24 Jan 12:12:28 12:14:08 12° 303° (WNW) 12:15:48 437.325/437.525
DANDE 24 Jan 12:21:24 12:26:26 18° 53° (NE) 12:31:42 436.750
SPROUT 24 Jan 12:26:20 12:30:31 53° 100° (E) 12:34:41 437.525
CUSAT 1 24 Jan 12:28:47 12:36:08 38° 64° (ENE) 12:42:57 437.405
VELOX 1 24 Jan 12:31:15 12:35:40 76° 104° (ESE) 12:40:03 145.980
POPSAT HIP 1 24 Jan 12:31:41 12:33:14 12° 272° (W) 12:34:47 437.405
DUCHIFAT 1 24 Jan 12:36:42 12:38:16 12° 272° (W) 12:39:50 145.980
UKube-1 24 Jan 12:38:39 12:42:35 33° 97° (E) 12:46:29 .
Cosmos 2491 24 Jan 12:39:40 12:48:31 74° 78° (ENE) 12:57:19 435.465 / 435.565
ESTCUBE 1 24 Jan 12:39:49 12:44:00 37° 293° (WNW) 12:48:08 437.505/2401.250
BY70-1 24 Jan 12:43:56 12:44:40 11° 300° (WNW) 12:45:24 436.1900
DX 1 24 Jan 12:48:24 12:52:41 56° 101° (E) 12:56:57 434.975-435.025
AIST 1 24 Jan 12:48:29 12:52:05 26° 89° (E) 12:55:41
YUBILEINY 24 Jan 12:49:41 12:57:11 33° 82° (E) 13:04:44 435.215
BUGSAT 1 24 Jan 12:51:08 12:54:04 19° 268° (W) 12:57:00 437.445
Oscar 19 24 Jan 12:53:49 12:59:01 73° 258° (WSW) 13:04:14 437.125/150
SO-50 24 Jan 12:55:51 12:58:31 15° 21° (NNE) 13:01:10 436.795
CUBEBUG 1 24 Jan 13:06:27 13:10:18 31° 294° (WNW) 13:14:05 437.445
Cosmos 2504 24 Jan 13:10:31 13:16:47 24° 80° (E) 13:22:46 435.465 / 435.565
50 SAT 24 Jan 13:31:03 13:34:04 26° 293° (WNW) 13:37:02 437.505
AO-85 24 Jan 13:31:07 13:35:45 88° 127° (SE) 13:40:03 145.980
AISAT 24 Jan 13:35:03 13:38:44 26° 296° (WNW) 13:42:22 437.250
O/OREOS (USA 219) 24 Jan 13:35:22 13:38:21 17° 45° (NE) 13:41:20 437.305
TISAT 1 24 Jan 13:38:14 13:42:16 46° 100° (E) 13:46:18 437.305
Gurwin Techsat 1B 24 Jan 13:44:27 13:49:35 49° 261° (W) 13:54:46 435.225
AO-7 24 Jan 13:46:32 13:54:31 52° 60° (ENE) 14:02:32 29.400- 29.500
ITAMSAT 1 24 Jan 13:46:54 13:51:47 45° 67° (ENE) 13:56:43 435.822/435.867
DANDE 24 Jan 14:02:50 14:10:40 62° 73° (ENE) 14:18:57 436.750
SPROUT 24 Jan 14:03:06 14:06:05 19° 299° (WNW) 14:09:04 437.525
VELOX 1 24 Jan 14:09:05 14:11:34 15° 302° (WNW) 14:14:03 145.980
CUSAT 1 24 Jan 14:10:40 14:18:29 59° 266° (W) 14:25:34 437.405
UKube-1 24 Jan 14:14:50 14:18:33 29° 295° (WNW) 14:22:14 .
ITUPSAT 1 24 Jan 14:21:33 14:25:44 28° 95° (E) 14:29:53 437.325
DX 1 24 Jan 14:25:28 14:28:29 19° 300° (WNW) 14:31:31 434.975-435.025
AIST 1 24 Jan 14:25:35 14:29:33 34° 287° (WNW) 14:33:32
SO-50 24 Jan 14:35:40 14:40:05 47° 44° (NE) 14:44:24 436.795
Cosmos 2491 24 Jan 14:37:26 14:44:33 29° 280° (W) 14:51:42 435.465 / 435.565
Oscar 19 24 Jan 14:38:10 14:39:15 11° 275° (W) 14:40:20 437.125/150
YUBILEINY 24 Jan 14:44:38 14:53:24 66° 284° (WNW) 15:02:14 435.215
BEESAT 24 Jan 14:52:45 14:57:28 55° 101° (E) 15:02:10 436.000
SWISSCUBE 24 Jan 14:54:51 14:59:39 64° 102° (ESE) 15:04:25 437.505
Cosmos 2504 24 Jan 15:00:47 15:09:20 83° 280° (W) 15:17:19 435.465 / 435.565
AO-85 24 Jan 15:13:23 15:16:40 20° 327° (NNW) 15:19:49 145.980
O/OREOS (USA 219) 24 Jan 15:13:50 15:18:21 81° 246° (WSW) 15:22:52 437.305
TISAT 1 24 Jan 15:14:31 15:17:37 21° 298° (WNW) 15:20:44 437.305
GOMX 1 24 Jan 15:16:43 15:19:31 15° 58° (ENE) 15:22:15 467.674
BEESAT 3 24 Jan 15:16:59 15:20:39 41° 121° (ESE) 15:24:23 437.485
ITAMSAT 1 24 Jan 15:27:00 15:31:26 28° 266° (W) 15:35:54 435.822/435.867
BRITE-PL 24 Jan 15:33:34 15:38:54 44° 68° (ENE) 15:44:03 437.365/2234.400
CUTE-I 24 Jan 15:34:26 15:36:08 11° 50° (NE) 15:37:50 437.470
AO-7 24 Jan 15:39:30 15:47:25 45° 261° (W) 15:55:24 29.400- 29.500
MOZHAYETS 4 24 Jan 15:44:33 15:49:11 61° 101° (E) 15:53:47
DANDE 24 Jan 15:46:00 15:53:08 38° 272° (W) 16:00:34 436.750
KKS-1 24 Jan 15:51:04 15:54:37 23° 93° (E) 15:58:09 437.445
CUSAT 1 24 Jan 15:55:18 15:58:42 13° 287° (WNW) 16:02:00 437.405
ITUPSAT 1 24 Jan 15:59:10 16:03:40 40° 293° (WNW) 16:08:08 437.325
LilacSat-2 24 Jan 15:59:43 16:00:35 11° 58° (ENE) 16:01:28 437.200
HORYU 2 24 Jan 16:01:51 16:05:49 34° 66° (ENE) 16:09:49 437.375
NOAA 15 24 Jan 16:08:32 16:12:28 22° 58° (ENE) 16:16:27 137.62
BEESAT 2 24 Jan 16:11:42 16:15:38 66° 124° (SE) 16:19:37 435.950
Cubesat XI-IV 24 Jan 16:16:12 16:20:18 23° 59° (ENE) 16:24:26 437.490
SO-50 24 Jan 16:16:30 16:20:21 28° 244° (WSW) 16:24:08 436.795
HO-68 24 Jan 16:18:27 16:21:28 13° 40° (NE) 16:24:29 435.675
M-CUBED/EXP-1 PRIME 24 Jan 16:27:48 16:30:53 35° 104° (ESE) 16:33:54 437.505
STARS 24 Jan 16:31:01 16:34:46 27° 95° (E) 16:38:29 437.465
BEESAT 24 Jan 16:31:13 16:34:54 22° 299° (WNW) 16:38:34 436.000
SWISSCUBE 24 Jan 16:33:33 16:37:00 20° 301° (WNW) 16:40:25 437.505
CUBESAT XI-V 24 Jan 16:42:57 16:47:24 40° 97° (E) 16:51:47 437.345
YUBILEINY 24 Jan 16:46:45 16:52:17 18° 309° (NW) 16:57:51 435.215
GOMX 1 24 Jan 16:51:40 16:56:58 85° 75° (ENE) 17:01:57 467.674
BEESAT 3 24 Jan 16:54:57 16:58:23 28° 321° (NW) 17:01:53 437.485
NOAA 18 24 Jan 16:57:54 17:02:38 31° 61° (ENE) 17:07:23 137.9125
Cosmos 2504 24 Jan 16:57:55 17:03:57 21° 302° (WNW) 17:09:44 435.465 / 435.565
AUBIESAT-1 24 Jan 17:00:12 17:03:33 73° 109° (ESE) 17:06:50 437.475
DOVE 4 24 Jan 17:07:18 17:11:58 52° 71° (ENE) 17:16:23 437.250
CUTE-I 24 Jan 17:09:56 17:15:08 60° 70° (ENE) 17:20:22 437.470
BRITE-PL 24 Jan 17:12:20 17:17:26 34° 266° (W) 17:22:24 437.365/2234.400
Cosmos 2499 24 Jan 17:14:29 17:16:55 12° 72° (ENE) 17:19:19 435.465 / 435.565
MOZHAYETS 4 24 Jan 17:22:37 17:25:56 20° 299° (WNW) 17:29:13
KKS-1 24 Jan 17:27:11 17:31:22 42° 292° (WNW) 17:35:32 437.445
LilacSat-2 24 Jan 17:30:28 17:34:14 86° 251° (WSW) 17:38:06 437.200
HORYU 2 24 Jan 17:38:33 17:42:23 29° 264° (W) 17:46:16 437.375
GONETS M04 24 Jan 17:41:00 17:45:58 17° 72° (ENE) 17:50:57
NOAA 15 24 Jan 17:46:30 17:51:47 69° 258° (WSW) 17:57:06 137.62
BEESAT 2 24 Jan 17:50:39 17:53:48 22° 325° (NW) 17:57:00 435.950
Cubesat XI-IV 24 Jan 17:54:43 17:59:58 62° 258° (WSW) 18:05:16 437.490
CUTE 1.7 + AOD 2 24 Jan 18:00:43 18:04:13 25° 65° (ENE) 18:07:45 437.475
HO-68 24 Jan 18:00:43 18:07:32 48° 62° (ENE) 18:14:21 435.675
CINEMA 3 24 Jan 18:01:53 18:05:57 42° 70° (ENE) 18:09:55 145.822/145.860
M-CUBED/EXP-1 PRIME 24 Jan 18:02:54 18:05:11 17° 303° (WNW) 18:07:25 437.505
STARS 24 Jan 18:07:11 18:11:11 35° 293° (WNW) 18:15:09 437.465
CUBESAT XI-V 24 Jan 18:20:39 18:24:37 28° 296° (WNW) 18:28:32 437.345
CUBEBUG 2 24 Jan 18:25:30 18:28:33 20° 63° (ENE) 18:31:36 437.445
COMPASS 1 24 Jan 18:28:12 18:31:30 23° 64° (ENE) 18:34:49 437.405
CANX-2 24 Jan 18:30:10 18:34:20 55° 72° (ENE) 18:38:33 2200.000
SEEDS 24 Jan 18:31:27 18:35:17 34° 68° (ENE) 18:39:10 437.485
GOMX 1 24 Jan 18:32:43 18:35:35 15° 272° (W) 18:38:23 467.674
AAUSAT CUBESAT 2 24 Jan 18:34:42 18:37:50 21° 63° (ENE) 18:41:00 437.432
AUBIESAT-1 24 Jan 18:36:51 18:37:29 10° 308° (NW) 18:38:06 437.475
AO-85 24 Jan 18:40:13 18:41:04 11° 17° (NNE) 18:41:57 145.980
